sat.trackr.live / text

‹ back to catalog

STARLINK-5352

NORAD 56426 · 2023-061BE

PAYLOAD ACTIVE UNKNOWN

§ Identity

Operator
Country
US
Launch date
2023-05-04
Launch site
AFETR
Launch vehicle
Mass (kg)
RCS (m²)

Purposes: comms

External: N2YO · Heavens-Above · Gunter

§ Orbital elements

Epoch: 2026-09-18T22:59:29.188608Z

Period
94.27 min
Inclination
43.0018°
Eccentricity
0.0001405
Mean motion
15.27576112 rev/d
Perigee alt
482.1 km
Apogee alt
484.0 km
Semi-major
6,861.2 km
B*
1.6459e-5
RAAN
168.3997°
Arg perigee
253.3665°
Mean anomaly
106.7032°
Rev number
18,651

§ Raw data

STARLINK-53521 56426U 23061BE  26261.95797672  .00000191  00000+0  16459-4 0  99932 56426  43.0018 168.3997 0001405 253.3665 106.7032 15.27576112186511

JSON: /api/v1/satellites/56426 · /tle

For live sub-satellite position, see the globe view (requires WebGL).

§ Visibility from observer

Set your observer location to see the next 7 days of passes ≥ 10°. The values pass through the URL so the page stays shareable.

No JS? Fill the form by hand. The geolocation button needs JavaScript.